Location: ?????????
(54.7630°N, 39.4991°E)
Time: 04:57:06
(UTC+00:00)

Cosmos 1937 Rocket - Pass Details

Date: 14 April 2026
Orbit: 742 x 775 km, 74.0° (Epoch: 10 May)

Event Time Altitude Azimuth Distance (km) Brightness Sun altitude
Rises 17:23:07 0° 209° (SSW) 3,244 6.7 -8.6°
Reaches altitude 10° 17:25:30 10° 211° (SSW) 2,321 6.0 -8.9°
Maximum altitude 17:30:47 79° 299° (WNW) 795 3.7 -9.6°
Drops below altitude 10° 17:36:06 10° 26° (NNE) 2,328 6.1 -10.2°
Sets 17:38:29 0° 28° (NNE) 3,254 6.8 -10.5°
